GW2963 Weather Reports


time (UTC)temp
C
wind
direction
speed
KPH
gust
KPH
rain 1hr
cm
rain 24hr
cm
rain mn
cm
humidity
%
barometer
mb
20260505140645 12 355 1.6 3.2 0.00 0.00 0.00 95 1015.4
20260505140142 12 2 1.6 1.6 0.00 0.00 0.00 95 1015.2
20260505130106 12 231 3.2 3.2 0.00 0.00 0.00 96 1015.1
20260505124555 12 219 1.6 3.2 0.00 0.00 0.00 96 1015.2
20260505124052 12 310 3.2 4.8 0.00 0.00 0.00 96 1015.0
20260505123548 12 322 3.2 3.2 0.00 0.00 0.00 96 1014.8
20260505123045 12 309 1.6 3.2 0.00 0.00 0.00 96 1015.0
20260505122542 12 328 3.2 4.8 0.00 0.00 0.00 96 1015.1
20260505122039 12 285 1.6 1.6 0.00 0.00 0.00 96 1015.2
20260505121535 11 224 3.2 4.8 0.00 0.00 0.00 96 1015.2
20260505121032 11 250 3.2 3.2 0.00 0.00 0.00 97 1015.2
20260505120528 11 348 1.6 1.6 0.00 0.00 0.00 97 1015.1
20260505120024 11 358 0.0 0.0 0.00 0.00 0.00 97 1015.1
20260505115518 11 300 1.6 3.2 0.00 0.00 0.00 97 1015.0
20260505115017 11 333 1.6 1.6 0.00 0.00 0.00 97 1014.9
20260505114513 11 282 3.2 3.2 0.00 0.00 0.00 97 1015.0
20260505114009 11 334 1.6 1.6 0.00 0.00 0.00 97 1015.1
20260505113506 11 298 3.2 4.8 0.00 0.00 0.00 97 1014.9
20260505113003 11 257 1.6 3.2 0.00 0.00 0.00 98 1015.0
20260505112459 11 242 6.4 6.4 0.00 0.00 0.00 98 1014.8
20260505111956 11 292 6.4 9.7 0.00 0.00 0.00 98 1014.8
20260505111450 11 299 1.6 1.6 0.00 0.00 0.00 98 1014.9
20260505110947 11 229 4.8 6.4 0.00 0.00 0.00 98 1015.0
20260505110444 11 270 3.2 4.8 0.00 0.00 0.00 98 1015.0
20260505101914 11 13 0.0 1.6 0.00 0.00 0.00 98 1015.4
20260505101409 11 359 0.0 0.0 0.00 0.00 0.00 98 1015.4
20260505100905 11 240 3.2 4.8 0.00 0.00 0.00 98 1015.3
20260505100402 11 281 1.6 1.6 0.00 0.00 0.00 98 1015.4
20260505095857 11 327 0.0 1.6 0.00 0.00 0.00 98 1015.5
20260505095355 11 306 4.8 4.8 0.00 0.00 0.00 98 1015.4
20260505094851 11 274 1.6 1.6 0.00 0.00 0.00 98 1015.5
20260505094348 11 283 1.6 1.6 0.00 0.00 0.00 99 1015.3
20260505093844 11 329 0.0 0.0 0.00 0.00 0.00 99 1015.4
20260505093341 11 304 1.6 1.6 0.00 0.00 0.00 99 1015.4
20260505092838 11 333 0.0 0.0 0.00 0.00 0.00 99 1015.6
20260505092337 11 292 1.6 1.6 0.00 0.00 0.00 99 1015.4
20260505091833 11 333 1.6 3.2 0.00 0.00 0.00 99 1015.2
20260505091332 11 294 3.2 4.8 0.00 0.00 0.00 99 1015.5
20260505090829 11 292 1.6 1.6 0.00 0.00 0.00 99 1015.5
20260505090327 11 349 3.2 4.8 0.00 0.00 0.00 99 1015.6
20260505085824 11 32 0.0 0.0 0.00 0.00 0.00 99 1016.0
20260505085322 11 10 0.0 0.0 0.00 0.00 0.00 99 1015.9
20260505084819 11 3 1.6 1.6 0.00 0.00 0.00 99 1016.0
20260505084318 11 359 0.0 0.0 0.00 0.00 0.00 99 1015.9
20260505083814 11 271 3.2 4.8 0.00 0.00 0.00 99 1015.8
20260505083312 11 1 0.0 0.0 0.00 0.00 0.00 99 1015.8
20260505082808 11 348 0.0 1.6 0.00 0.00 0.00 99 1016.0
20260505082305 11 11 0.0 0.0 0.00 0.00 0.00 99 1015.9
20260505081801 11 337 0.0 1.6 0.00 0.00 0.00 99 1015.8
20260505081258 11 291 3.2 4.8 0.00 0.00 0.00 99 1016.1
20260505080755 11 326 1.6 3.2 0.00 0.00 0.00 99 1016.0
20260505080251 11 285 3.2 3.2 0.00 0.00 0.00 99 1015.9
20260505075746 11 298 3.2 4.8 0.00 0.00 0.00 99 1015.9
20260505075244 11 283 1.6 4.8 0.00 0.00 0.00 99 1016.0
20260505074741 11 357 0.0 1.6 0.00 0.00 0.00 99 1016.0
20260505074238 11 323 1.6 1.6 0.00 0.00 0.00 99 1016.2
20260505073736 11 3 1.6 1.6 0.00 0.00 0.00 99 1016.0
20260505073233 11 309 3.2 3.2 0.00 0.00 0.00 99 1016.1
20260505072730 11 296 3.2 3.2 0.00 0.00 0.00 99 1015.9
20260505072226 11 312 1.6 1.6 0.00 0.00 0.00 99 1016.3
20260505071721 11 352 0.0 0.0 0.00 0.00 0.00 98 1016.4
20260505071219 11 46 0.0 0.0 0.00 0.00 0.00 98 1016.3
20260505070716 11 325 3.2 3.2 0.00 0.00 0.00 98 1016.1
20260505070212 11 337 1.6 1.6 0.00 0.00 0.00 98 1016.2
20260505065708 11 358 0.0 0.0 0.00 0.00 0.00 98 1016.4
20260505065205 11 334 3.2 4.8 0.00 0.00 0.00 98 1016.4
20260505064702 11 358 3.2 3.2 0.00 0.00 0.00 98 1016.2
20260505064200 11 322 3.2 4.8 0.00 0.00 0.00 98 1016.2
20260505063657 11 334 4.8 9.7 0.00 0.00 0.00 98 1016.2
20260505063153 11 285 3.2 4.8 0.00 0.00 0.00 98 1015.8
20260505062649 11 272 3.2 6.4 0.00 0.00 0.00 98 1015.7
20260505062147 11 309 3.2 4.8 0.00 0.00 0.00 98 1015.8
20260505061644 11 310 1.6 1.6 0.00 0.00 0.00 98 1016.1
20260505061143 11 239 3.2 6.4 0.00 0.00 0.00 98 1016.3
20260505060640 11 302 4.8 6.4 0.00 0.00 0.00 98 1016.4
20260505060136 11 316 4.8 4.8 0.00 0.00 0.00 98 1016.2
20260505055631 11 348 1.6 1.6 0.00 0.00 0.00 98 1016.3
20260505055128 11 262 6.4 9.7 0.00 0.00 0.00 98 1016.3
20260505054626 10 248 3.2 6.4 0.00 0.00 0.00 98 1016.3
20260505054124 10 311 6.4 6.4 0.00 0.00 0.00 98 1016.2
20260505053621 10 302 4.8 4.8 0.00 0.00 0.00 98 1016.4
20260505053117 10 352 1.6 3.2 0.00 0.00 0.00 98 1016.3
20260505052614 10 23 0.0 0.0 0.00 0.00 0.00 98 1016.4
20260505052112 10 14 0.0 0.0 0.00 0.00 0.00 98 1016.3
20260505051608 10 337 1.6 1.6 0.00 0.00 0.00 98 1016.4
20260505051107 10 7 0.0 0.0 0.00 0.00 0.00 98 1016.5
20260505050604 10 350 0.0 1.6 0.00 0.00 0.00 98 1016.4
20260505041532 10 334 0.0 1.6 0.00 0.00 0.00 97 1017.3
20260505041030 10 300 0.0 1.6 0.00 0.00 0.00 97 1017.4
20260505040527 10 276 1.6 1.6 0.00 0.00 0.00 97 1017.4
20260505040024 10 350 0.0 0.0 0.00 0.00 0.00 97 1017.2
20260505035520 10 23 0.0 0.0 0.00 0.00 0.00 97 1017.2
20260505035017 10 24 3.2 3.2 0.00 0.00 0.00 97 1016.8
20260505034513 11 7 0.0 0.0 0.00 0.00 0.00 97 1016.1
20260505034010 11 355 0.0 0.0 0.00 0.00 0.00 97 1016.0
20260505033507 11 309 3.2 3.2 0.00 0.00 0.00 97 1015.4
20260505033005 11 338 1.6 3.2 0.00 0.00 0.00 97 1015.6
20260505032502 11 277 6.4 6.4 0.00 0.00 0.00 97 1015.6
20260505031959 11 309 1.6 3.2 0.00 0.00 0.00 97 1015.7
20260505031455 11 2 1.6 1.6 0.00 0.00 0.00 96 1015.5
20260505030952 11 348 3.2 4.8 0.00 0.00 0.00 96 1015.3
20260505030449 11 348 1.6 3.2 0.00 0.00 0.00 96 1015.5
20260505025943 11 312 1.6 1.6 0.00 0.00 0.00 96 1015.7
20260505025441 11 290 3.2 3.2 0.00 0.00 0.00 96 1015.9
20260505024940 11 306 3.2 3.2 0.00 0.00 0.00 96 1016.1
20260505024437 11 308 4.8 6.4 0.00 0.00 0.00 95 1016.0
20260505023934 11 312 4.8 6.4 0.00 0.00 0.00 95 1016.0
20260505023431 11 325 3.2 4.8 0.00 0.00 0.00 95 1015.7
20260505022928 11 310 4.8 6.4 0.00 0.00 0.00 95 1015.9
20260505022426 11 307 1.6 3.2 0.00 0.00 0.00 95 1016.2
20260505021923 11 285 6.4 6.4 0.00 0.00 0.00 95 1016.1
20260505021419 12 270 1.6 1.6 0.00 0.00 0.00 95 1016.1
20260505020915 12 252 4.8 4.8 0.00 0.00 0.00 95 1015.9
20260505020410 12 25 0.0 1.6 0.00 0.00 0.00 95 1016.0
20260505015908 12 270 6.4 9.7 0.00 0.00 0.00 95 1016.0
20260505015405 12 312 8.0 11.3 0.00 0.00 0.00 95 1015.9
20260505014902 12 10 0.0 0.0 0.00 0.00 0.00 95 1016.2
20260505014359 12 215 1.6 3.2 0.00 0.00 0.00 95 1016.2
20260505013856 12 31 0.0 0.0 0.00 0.00 0.00 95 1016.3
20260505013353 12 25 0.0 0.0 0.00 0.00 0.00 95 1016.2
20260505012851 12 17 0.0 0.0 0.00 0.00 0.00 95 1016.5
20260505012349 12 5 0.0 0.0 0.00 0.00 0.00 95 1016.4
20260505011844 12 325 1.6 1.6 0.00 0.00 0.00 95 1016.4
20260505011341 12 340 0.0 0.0 0.00 0.00 0.00 95 1016.4
20260505010837 12 286 1.6 1.6 0.00 0.00 0.00 95 1016.4
20260505010333 12 5 1.6 1.6 0.00 0.00 0.00 94 1016.5
20260505005830 12 344 1.6 1.6 0.00 0.00 0.00 94 1016.4
20260505005327 12 9 1.6 1.6 0.00 0.00 0.00 94 1016.4
20260505004825 12 313 4.8 6.4 0.00 0.00 0.00 94 1016.6
20260505004320 12 286 3.2 6.4 0.00 0.00 0.00 94 1016.5
20260505003818 12 285 3.2 3.2 0.00 0.00 0.00 94 1016.6
20260505003315 13 20 1.6 1.6 0.00 0.00 0.00 94 1016.4
20260505002811 13 10 0.0 0.0 0.00 0.00 0.00 93 1016.6
20260505002308 13 25 0.0 1.6 0.00 0.00 0.00 93 1016.6
20260505001807 13 357 0.0 1.6 0.00 0.00 0.00 92 1016.6
20260505001303 13 9 0.0 0.0 0.00 0.00 0.00 92 1016.5
20260505000800 13 2 0.0 0.0 0.00 0.00 0.00 91 1016.5
20260505000258 13 356 0.0 0.0 0.00 0.00 0.00 91 1016.4
20260504235754 13 318 1.6 1.6 0.00 0.00 0.00 90 1016.3
20260504235251 13 298 1.6 1.6 0.00 0.00 0.00 90 1016.3
20260504234748 13 357 1.6 1.6 0.00 0.00 0.00 89 1016.0
20260504234246 13 334 0.0 1.6 0.00 0.00 0.00 88 1016.2
20260504233742 13 355 0.0 1.6 0.00 0.00 0.00 88 1016.3
20260504233237 13 302 3.2 3.2 0.00 0.00 0.00 86 1016.1
20260504232735 14 336 1.6 1.6 0.00 0.00 0.00 84 1016.1
20260504232232 14 3 1.6 1.6 0.00 0.00 0.00 83 1016.2
20260504231728 14 12 0.0 1.6 0.00 0.00 0.00 83 1016.4
20260504231225 15 326 1.6 1.6 0.00 0.00 0.00 82 1016.1
20260504230721 15 297 4.8 6.4 0.00 0.00 0.00 80 1016.2
20260504230220 15 302 4.8 4.8 0.00 0.00 0.00 79 1015.9
20260504225718 15 323 0.0 0.0 0.00 0.00 0.00 78 1016.1
20260504225214 15 304 3.2 4.8 0.00 0.00 0.00 75 1016.2
20260504224711 15 295 4.8 9.7 0.00 0.00 0.00 74 1016.4
20260504224209 15 300 3.2 3.2 0.00 0.00 0.00 73 1016.4
20260504223705 15 247 3.2 4.8 0.00 0.00 0.00 73 1016.4
20260504223200 16 2 0.0 0.0 0.00 0.00 0.00 72 1016.4
20260504222658 16 354 1.6 3.2 0.00 0.00 0.00 72 1016.4
20260504222154 16 269 3.2 3.2 0.00 0.00 0.00 70 1016.3
20260504221652 16 313 0.0 1.6 0.00 0.00 0.00 71 1016.3
20260504221149 16 302 1.6 1.6 0.00 0.00 0.00 71 1016.3
20260504220645 16 277 4.8 6.4 0.00 0.00 0.00 69 1016.3
20260504220143 16 282 3.2 3.2 0.00 0.00 0.00 66 1016.1
20260504215639 16 212 4.8 9.7 0.00 0.00 0.00 63 1016.1
20260504215136 16 257 3.2 4.8 0.00 0.00 0.00 63 1016.1
20260504214632 16 272 3.2 6.4 0.00 0.00 0.00 61 1016.2
20260504214130 17 287 4.8 6.4 0.00 0.00 0.00 61 1016.2
20260504213625 17 305 3.2 4.8 0.00 0.00 0.00 58 1015.9
20260504213122 17 238 3.2 4.8 0.00 0.00 0.00 57 1016.1
20260504212618 17 320 3.2 3.2 0.00 0.00 0.00 56 1016.1
20260504212115 17 186 6.4 9.7 0.00 0.00 0.00 56 1016.1
20260504211613 17 313 3.2 4.8 0.00 0.00 0.00 56 1016.3
20260504211109 17 267 3.2 4.8 0.00 0.00 0.00 57 1016.1
20260504210607 17 287 6.4 11.3 0.00 0.00 0.00 56 1016.1
20260504205601 17 303 3.2 3.2 0.00 0.00 0.00 56 1016.3
20260504205058 17 354 1.6 3.2 0.00 0.00 0.00 57 1016.5
20260504204556 17 323 8.0 11.3 0.00 0.00 0.00 56 1016.4
20260504204055 17 272 6.4 9.7 0.00 0.00 0.00 54 1016.1
20260504203553 17 304 1.6 3.2 0.00 0.00 0.00 55 1016.1
20260504203050 17 238 6.4 6.4 0.00 0.00 0.00 56 1016.1
20260504202545 17 300 4.8 6.4 0.00 0.00 0.00 57 1016.1
20260504202042 18 207 6.4 6.4 0.00 0.00 0.00 55 1016.2
20260504201539 17 348 1.6 1.6 0.00 0.00 0.00 59 1016.1
20260504201037 17 3 3.2 4.8 0.00 0.00 0.00 57 1016.3
20260504200533 17 13 1.6 4.8 0.00 0.00 0.00 60 1016.3
20260504200031 17 16 3.2 3.2 0.00 0.00 0.00 60 1016.3
20260504195526 18 0 4.8 6.4 0.00 0.00 0.00 59 1016.1
20260504195023 17 0 4.8 4.8 0.00 0.00 0.00 59 1016.2
20260504194520 18 42 3.2 4.8 0.00 0.00 0.00 58 1016.2
20260504194015 18 52 1.6 1.6 0.00 0.00 0.00 57 1016.3
20260504193512 18 208 1.6 3.2 0.00 0.00 0.00 57 1016.1
20260504193011 18 253 8.0 9.7 0.00 0.00 0.00 58 1016.2
20260504192509 18 234 6.4 6.4 0.00 0.00 0.00 57 1016.3
20260504192007 18 348 4.8 6.4 0.00 0.00 0.00 54 1016.4
20260504191504 18 151 3.2 3.2 0.00 0.00 0.00 57 1016.3
20260504191000 18 292 3.2 3.2 0.00 0.00 0.00 56 1016.4
20260504190455 18 347 1.6 3.2 0.00 0.00 0.00 58 1016.4
20260504185952 18 278 1.6 3.2 0.00 0.00 0.00 56 1016.3
20260504185449 18 278 3.2 4.8 0.00 0.00 0.00 55 1016.3
20260504184946 18 316 1.6 3.2 0.00 0.00 0.00 58 1016.5
20260504184441 18 341 4.8 9.7 0.00 0.00 0.00 59 1016.3
20260504183937 18 206 4.8 6.4 0.00 0.00 0.00 59 1016.3
20260504183434 18 239 1.6 1.6 0.00 0.00 0.00 58 1016.2
20260504182933 19 310 1.6 1.6 0.00 0.00 0.00 58 1016.1
20260504182429 18 17 3.2 4.8 0.00 0.00 0.00 61 1016.1
20260504181926 18 27 1.6 1.6 0.00 0.00 0.00 61 1016.2
20260504181423 18 8 1.6 3.2 0.00 0.00 0.00 62 1016.1
20260504180922 18 284 8.0 11.3 0.00 0.00 0.00 61 1016.2
20260504180421 18 293 4.8 6.4 0.00 0.00 0.00 62 1016.2
20260504175918 18 342 0.0 1.6 0.00 0.00 0.00 57 1016.2
20260504175415 18 278 3.2 3.2 0.00 0.00 0.00 62 1016.3
20260504174913 17 255 4.8 6.4 0.00 0.00 0.00 64 1016.0
20260504174410 18 301 6.4 9.7 0.00 0.00 0.00 65 1016.2
20260504173908 17 269 3.2 4.8 0.00 0.00 0.00 69 1016.1
20260504173403 17 268 4.8 4.8 0.00 0.00 0.00 67 1016.2
20260504172901 17 286 4.8 6.4 0.00 0.00 0.00 68 1016.4
20260504172357 17 253 3.2 3.2 0.00 0.00 0.00 70 1016.4
20260504171853 17 310 3.2 4.8 0.00 0.00 0.00 72 1016.2
20260504171351 16 311 0.0 1.6 0.00 0.00 0.00 74 1016.2
20260504170848 16 282 6.4 6.4 0.00 0.00 0.00 73 1016.2
20260504170344 16 269 6.4 6.4 0.00 0.00 0.00 75 1016.1
20260504160303 13 278 1.6 1.6 0.00 0.00 0.00 86 1016.1
20260504150728 11 3 1.6 1.6 0.00 0.00 0.00 97 1016.0
20260504150225 11 317 1.6 1.6 0.00 0.00 0.00 97 1016.1